This demonstration page uses our WeatherBlox Daily Observations layout. Learn more.

Left ArrowRight Arrow

38.80484, -77.04692

Hourly Observations for December 12, 2021

Temp ( °F °C ) Dew Point ( °F °C ) Humidity (%) Winds ( mph kmh ) Pressure ( in mb ) Visibility ( mi km ) Precip ( " mm )
12:52 am 00:52 Cloudy 47 8.3 28 -2.2 48 48 WNW 18 30 29.96 1015 10 16 0.00 0.00
1:52 am 01:52 Cloudy 46 7.8 27 -2.8 47 47 NW 9 15 30.01 1016 10 16 0.00 0.00
2:52 am 02:52 Cloudy 45 7.2 25 -3.9 46 46 NW 15 24 30.05 1018 10 16 0.00 0.00
3:52 am 03:52 Cloudy 44 6.7 25 -3.9 47 47 WNW 16 26 30.09 1019 10 16 0.00 0.00
4:52 am 04:52 Cloudy 44 6.7 23 -5 43 43 NW 14 22 30.11 1020 10 16 0.00 0.00
5:52 am 05:52 Mostly Clear 42 5.6 23 -5 47 47 WNW 9 15 30.14 1021 10 16 0.00 0.00
6:52 am 06:52 Mostly Clear 41 5 20 -6.7 43 43 NNW 10 17 30.19 1022 10 16 0.00 0.00
7:52 am 07:52 Mostly Sunny 41 5 21 -6.1 45 45 W 5 7 30.23 1024 10 16 0.00 0.00
8:52 am 08:52 Sunny 43 6.1 22 -5.6 43 43 WNW 6 9 30.25 1025 10 16 0.00 0.00
9:52 am 09:52 Sunny 45 7.2 20 -6.7 37 37 WNW 12 19 30.28 1026 10 16 0.00 0.00
10:52 am 10:52 Sunny 47 8.3 20 -6.7 34 34 WNW 12 19 30.30 1026 10 16 0.00 0.00
11:52 am 11:52 Sunny 48 8.9 20 -6.7 33 33 WNW 17 28 30.29 1026 10 16 0.00 0.00
12:52 pm 12:52 Sunny 49 9.4 19 -7.2 31 31 WNW 10 17 30.29 1026 10 16 0.00 0.00
1:52 pm 13:52 Sunny 51 10.6 18 -7.8 27 27 NW 6 9 30.27 1025 10 16 0.00 0.00
2:52 pm 14:52 Sunny 51 10.6 17 -8.3 26 26 WNW 12 19 30.28 1025 10 16 0.00 0.00
3:52 pm 15:52 Sunny 51 10.6 16 -8.9 25 25 W 13 20 30.30 1026 10 16 0.00 0.00
4:52 pm 16:52 Mostly Clear 50 10 14 -10 24 24 W 7 11 30.30 1026 10 16 0.00 0.00
5:52 pm 17:52 Mostly Clear 48 8.9 14 -10 25 25 W 3 6 30.31 1026 10 16 0.00 0.00
6:52 pm 18:52 Mostly Clear 46 7.8 17 -8.3 31 31 SW 5 7 30.31 1026 10 16 0.00 0.00
7:52 pm 19:52 Mostly Clear 42 5.6 20 -6.7 41 41 SW 5 7 30.32 1027 10 16 0.00 0.00
8:52 pm 20:52 Mostly Clear 41 5 21 -6.1 45 45 WSW 7 11 30.33 1027 10 16 0.00 0.00
9:52 pm 21:52 Mostly Clear 41 5 20 -6.7 43 43 S 5 7 30.34 1027 10 16 0.00 0.00
10:52 pm 22:52 Mostly Clear 40 4.4 29 -1.7 65 65 Calm 30.36 1028 10 16 0.00 0.00
11:52 pm 23:52 Mostly Clear 38 3.3 27 -2.8 65 65 SSE 5 7 30.35 1028 10 16 0.00 0.00

Powered by AerisWeather